{"data":{"norad_id":68174,"intl_designator":"2026-050H","name":"STARLINK-37078","alt_names":[],"object_type":"PAYLOAD","status":"ACTIVE","operator":null,"country":"US","launch_date":"2026-03-14","launch_site_code":"AFETR","launch_vehicle":null,"mission":null,"orbit_class":"UNKNOWN","rcs_meters":null,"size_class":null,"mass_kg":null,"dimensions":null,"purposes":["comms"],"wikipedia_slug":null,"has_3d_model":false,"image_url":null,"decayed_at":null,"tle_current":{"epoch":"2026-09-19T21:42:08.496000Z","epoch_age_seconds":107616,"freshness":"FRESH","line1":"1 68174U 26050H   26262.90426500  .00024303  00000+0  72850-3 0  9999","line2":"2 68174  53.1585  80.7116 0001418  71.8447 288.2709 15.34381926 30475","mean_motion":15.34381926,"eccentricity":0.0001418,"inclination_deg":53.1585,"raan_deg":80.7116,"arg_perigee_deg":71.8447,"mean_anomaly_deg":288.2709,"bstar":0.0007285,"rev_number":3047,"period_min":93.848863545594,"perigee_km":461.78692170775,"apogee_km":463.72699923494,"semimajor_km":6840.8939604713,"source":"CELESTRAK","updated_at":"2026-09-20T09:00:43.799897Z"}}}